{"data":{"norad_id":65032,"intl_designator":"2025-161T","name":"STARLINK-34656","alt_names":[],"object_type":"PAYLOAD","status":"ACTIVE","operator":null,"country":"US","launch_date":"2025-07-30","launch_site_code":"AFWTR","launch_vehicle":null,"mission":null,"orbit_class":"UNKNOWN","rcs_meters":null,"size_class":null,"mass_kg":null,"dimensions":null,"purposes":["comms"],"wikipedia_slug":null,"has_3d_model":false,"image_url":null,"decayed_at":null,"tle_current":{"epoch":"2026-05-25T03:42:24.414336Z","epoch_age_seconds":57654,"freshness":"FRESH","line1":"1 65032U 25161T   26145.15444924  .00013298  00000+0  46015-3 0  9993","line2":"2 65032  53.1601 299.2635 0000971  97.0061 263.1050 15.30209444 47033","mean_motion":15.30209444,"eccentricity":9.71e-5,"inclination_deg":53.1601,"raan_deg":299.2635,"arg_perigee_deg":97.0061,"mean_anomaly_deg":263.105,"bstar":0.00046015,"rev_number":4703,"period_min":94.104764916089,"perigee_km":474.52141373472,"apogee_km":475.85232923056,"semimajor_km":6853.3238714826,"source":"CELESTRAK","updated_at":"2026-05-25T13:38:20.671932Z"}}}